TimePDT,TemperatureF,Dew PointF,Humidity,Sea Level PressureIn,VisibilityMPH,Wind Direction,Wind SpeedMPH,Gust SpeedMPH,PrecipitationIn,Events,Conditions,WindDirDegrees,DateUTC
12:53 AM,61.0,30.9,32,29.87,10.0,SSW,4.6,-,N/A,,Clear,210,2013-09-16 07:53:00
1:53 AM,59.0,30.9,35,29.88,10.0,Variable,3.5,-,N/A,,Clear,0,2013-09-16 08:53:00
2:53 AM,59.0,30.9,35,29.87,10.0,Variable,3.5,-,N/A,,Clear,0,2013-09-16 09:53:00
3:53 AM,61.0,30.9,32,29.87,10.0,Calm,Calm,-,N/A,,Clear,0,2013-09-16 10:53:00
4:53 AM,60.1,30.9,33,29.88,10.0,South,8.1,-,N/A,,Clear,180,2013-09-16 11:53:00
5:53 AM,60.1,30.9,33,29.89,10.0,South,4.6,-,N/A,,Clear,190,2013-09-16 12:53:00
6:53 AM,60.1,33.1,36,29.90,10.0,SW,6.9,-,N/A,,Clear,220,2013-09-16 13:53:00
7:53 AM,64.0,34.0,33,29.90,10.0,SSW,8.1,-,N/A,,Clear,200,2013-09-16 14:53:00
8:53 AM,68.0,33.1,27,29.90,10.0,SSW,12.7,20.7,N/A,,Clear,200,2013-09-16 15:53:00
9:53 AM,71.1,32.0,24,29.90,10.0,SSW,12.7,27.6,N/A,,Clear,200,2013-09-16 16:53:00
10:53 AM,73.9,32.0,21,29.89,10.0,SSW,13.8,26.5,N/A,,Clear,210,2013-09-16 17:53:00
11:53 AM,75.0,33.1,22,29.89,10.0,South,15.0,26.5,N/A,,Clear,190,2013-09-16 18:53:00
12:53 PM,77.0,33.1,20,29.87,10.0,SSW,18.4,29.9,N/A,,Clear,200,2013-09-16 19:53:00
1:53 PM,77.0,32.0,19,29.86,10.0,SSW,17.3,31.1,N/A,,Clear,200,2013-09-16 20:53:00
2:53 PM,77.0,33.1,20,29.84,10.0,SSW,12.7,25.3,N/A,,Clear,210,2013-09-16 21:53:00
3:53 PM,75.9,32.0,20,29.82,10.0,SW,11.5,24.2,N/A,,Clear,220,2013-09-16 22:53:00
4:53 PM,75.0,32.0,21,29.81,10.0,WSW,8.1,-,N/A,,Clear,240,2013-09-16 23:53:00
5:53 PM,72.0,34.0,25,29.81,10.0,Variable,4.6,17.3,N/A,,Clear,0,2013-09-17 00:53:00
6:53 PM,68.0,37.9,33,29.83,10.0,Variable,5.8,-,N/A,,Clear,0,2013-09-17 01:53:00
7:53 PM,64.9,39.9,40,29.83,10.0,SSW,5.8,-,N/A,,Clear,210,2013-09-17 02:53:00
8:53 PM,61.0,41.0,48,29.84,10.0,Calm,Calm,-,N/A,,Clear,0,2013-09-17 03:53:00
9:53 PM,61.0,37.9,42,29.83,10.0,SSW,4.6,-,N/A,,Clear,200,2013-09-17 04:53:00
10:53 PM,61.0,33.1,35,29.83,10.0,SSW,8.1,-,N/A,,Clear,210,2013-09-17 05:53:00
11:53 PM,57.9,36.0,44,29.83,10.0,Variable,4.6,-,N/A,,Clear,0,2013-09-17 06:53:00